Regional Weather Roundup
Issued by NWS Mobile, AL

Home | Current Version | Previous Version | Text Only | Print | Product List | Glossary Off
Versions: 1 2 3 4 5 6 7 8 9 10 11 12 13 14 15 16 17 18 19 20 21 22 23 24 25 26 27 28 29 30 31 32 33 34 35 36 37 38 39 40 41 42 43 44 45 46 47 48 49 50

000
ASUS44 KMOB 221610
RWRMOB
REGIONAL WEATHER ROUNDUP
NATIONAL WEATHER SERVICE MOBILE AL
1100 AM CDT MON SEP 22 2014

NOTE: "FAIR" INDICATES FEW OR NO CLOUDS BELOW 12,000 FEET WITH NO
      SIGNIFICANT WEATHER AND/OR OBSTRUCTIONS TO VISIBILITY.

  * THESE STATIONS ARE PART OF THE UNIVERSITY OF SOUTH ALABAMA
    MESONET AND ARE NOT UNDER NWS OR FAA QUALITY CONTROL.

ALZ061>064-221700-
COASTAL ALABAMA

CITY           SKY/WX    TMP DP  RH WIND       PRES   REMARKS
MOBILE REG APT MOSUNNY   85  69  58 N5        30.04F
BROOKLEY FIELD SUNNY     82  72  71 E5        30.04F
USA CAMPUS*      N/A     86  70  58 CALM      30.02F
DOG RIVER*     NOT AVBL


CITY           SKY/WX    TMP DP  RH WIND       PRES   REMARKS
MOUNT VERNON*    N/A     81  70  69 VRB5      30.04S
SARALAND*      NOT AVBL
BAY MINETTE*   NOT AVBL
LOXLEY*          N/A     68  68 100 NW6       30.02F
ROBERTSDALE*     N/A     79  64  61 CALM      30.02F
FAIRHOPE*        N/A     84  70  61 NW3       30.01F
ELBERTA*         N/A     84  73  70 CALM      30.01F
FOLEY*         NOT AVBL
GRAND BAY*       N/A     84  70  61 N2        30.02F
DAUPHIN ISLND* NOT AVBL
BON SCOUR NWR* NOT AVBL
GULF SHORES    SUNNY     85  71  62 N6        30.02F

$$

ALZ051>060-221700-
INTERIOR SOUTHWEST AND SOUTH CENTRAL ALABAMA

CITY           SKY/WX    TMP DP  RH WIND       PRES   REMARKS
GREENVILLE     CLOUDY    77  66  68 N9        30.06F
EVERGREEN      PTSUNNY   81  69  67 NE9       30.05F
CASTLEBERRY*   NOT AVBL
ATMORE*        NOT AVBL
DIXIE*         NOT AVBL
ANDALUSIA/OPP  SUNNY     89  70  53 NW7       30.03F
ANDALUSIA*     NOT AVBL
FLORALA APT    SUNNY     87  65  47 VRB3      30.04F
FLORALA*         N/A     86  64  48 SW2       29.99F

$$

FLZ001>006-221700-
WESTERN FLORIDA PANHANDLE

CITY           SKY/WX    TMP DP  RH WIND       PRES   REMARKS
PENSACOLA      SUNNY     84  68  58 N9        30.02F
NAS PENSACOLA  MOSUNNY   87  69  54 N8        30.01F
MILTON         MOSUNNY   85  65  51 W7        30.02F
WHTNG S FIELD  MOSUNNY   86  68  54 VRB3      30.02F


CITY           SKY/WX    TMP DP  RH WIND       PRES   REMARKS
WALNUT HILL*   NOT AVBL
JAY*           NOT AVBL
DUKE FIELD     MOSUNNY   85  74  69 NW7       30.02F
CRESTVIEW      SUNNY     86  67  52 NW8       30.03F
VALPARAISO     MOSUNNY   86  68  54 NW5       30.02F
DESTIN         SUNNY     86  70  58 N6        30.02F

$$

MSZ076-079-221700-
INTERIOR SOUTHEAST MISSISSIPPI

CITY           SKY/WX    TMP DP  RH WIND       PRES   REMARKS
LEAKESVILLE*     N/A     79  70  73 NE3       30.06S
AGRICOLA*      NOT AVBL

$$

MARINE OBSERVATIONS

STATION/POSITION TIME  TEMP    WIND        PRES    WAVE
                       AIR SEA DIR/SP/G            HT/PER
                 (UTC) (F)     (DEG/KT/KT) (MB)    (FT/S)
PASCAGOULA       1600   83      20/  5/  6 1016.8F
PETIT BOIS ISLND 1600   83     360/  6/  7 1017.3F
GRAND BAY        1500   80      10/  7     1018.0S
KATRINA CUT      1500   80     360/  7     1018.0S
CEDAR POINT      1500   79      50/  6     1017.6F
E DAUPHIN ISLAND 1600   80      10/  6/  7 1016.7F
MIDDLE BAY LIGHT 1500   83      10/  6     1016.3F
USCG MOBILE BAY  1600      84              1015.9F
STATE DOCKS      1600   87 86              1016.7F
MEAHER PARK      1500   81     260/  2     1016.3F
WEEKS BAY        1500   82                   N/A
FORT MORGAN      1600   81      20/  9/ 10 1016.4F
12 S ORANGE BCH  1600   81 85   10/ 12/ 14 1016.6F   1/ 5
PENSACOLA BAY    1600   85 85  360/  4/  7 1016.7F
64 S DAUPHIN ISL 1453   82 84   50/ 12/ 16 1017.0R   2/ 5
67 S FORT MORGAN 1500   85                 1015.9F

$$

SELECTED LOCATIONS ACROSS THE REGION

CITY           SKY/WX    TMP DP  RH WIND       PRES   REMARKS
NEW ORLEANS    MOSUNNY   87  69  54 N7        30.05R
GULFPORT       SUNNY     86  67  52 N5        30.03F
PASCAGOULA AP  SUNNY     85  69  58 NE6       30.03F
PASCAGOULA*    NOT AVBL
HATTIESBURG    SUNNY     82  69  64 NE9       30.07S
LAUREL         SUNNY     81  63  54 NE14      30.11R
MERIDIAN       MOSUNNY   80  53  39 N15       30.11S
JACKSON        SUNNY     80  55  42 N9        30.13S
MONTGOMERY     LGT RAIN  68  64  87 N3        30.09R
TROY           PTSUNNY   77  63  61 N10       30.07S
KINSTON*       NOT AVBL
GENEVA*          N/A     86  64  48 W3        30.03F
ASHFORD*       NOT AVBL
DOTHAN         MOSUNNY   86  66  51 W7        30.05F
PANAMA CITY    SUNNY     86  67  52 VRB3      30.01F

$$




USA.gov is the U.S. government's official web portal to all federal, state and local government web resources and services.